Mustafa Sofuoglu — TCOJ7 — position and weather

sailwx.info

Track history (hours):
 
Tides and Currents Weather Stations Pressure Air Temp Water Temp Dewpoint Dewpoint Depression Visibility Wind Speed Wind Dir Waves Ship Positions

Mustafa Sofuoglu

Last reported at 2014-Sep-20 21:29 UTC. Time now 2014-Sep-20 22:02 UTC.
Position N 44°44' E 037°47'.

Length 106 m; draft 5.6 m.

Type: Cargo ship. MMSI: 271000831.

Date/timePositionNaut miles runAvg speedWind from/ knotsBaromVisibWave heightAir tempDewpointWater temp
2014-Sep-20 21:29N 44°44' E 037°47'0 0.0
2014-Sep-20 20:32N 44°44' E 037°47'0 0.0
2014-Sep-20 19:32N 44°44' E 037°47'0 0.0
2014-Sep-20 18:32N 44°44' E 037°47'0 0.0
2014-Sep-20 17:32N 44°44' E 037°47'0 0.0
2014-Sep-20 16:32N 44°44' E 037°47'0 0.0
2014-Sep-20 15:29N 44°44' E 037°47'0 0.0
2014-Sep-20 14:32N 44°44' E 037°47'0 0.0
2014-Sep-20 13:32N 44°44' E 037°47'0 0.0
2014-Sep-20 12:32N 44°44' E 037°47'2 2.3
2014-Sep-20 11:34N 44°42' E 037°49'4 4.4
2014-Sep-20 10:33N 44°38' E 037°52'9 8.7
2014-Sep-20 09:33N 44°30' E 037°48'9 8.5
2014-Sep-20 08:33N 44°23' E 037°41'0 0.4
2014-Sep-20 07:33N 44°23' E 037°41'1 0.6
2014-Sep-20 06:33N 44°23' E 037°42'1 0.7
2014-Sep-20 05:32N 44°23' E 037°43'1 0.6
2014-Sep-20 04:33N 44°23' E 037°44'1 0.6
2014-Sep-20 03:33N 44°23' E 037°44'0 0.4
2014-Sep-20 02:32N 44°22' E 037°45'0 0.4
2014-Sep-20 01:32N 44°23' E 037°46'0 0.4
2014-Sep-20 00:33N 44°23' E 037°46'0 0.3
2014-Sep-19 23:32N 44°23' E 037°46'0 0.4
2014-Sep-19 22:34N 44°23' E 037°47'0 0.4
2014-Sep-19 21:33N 44°24' E 037°47'0 0.4
2014-Sep-19 20:33N 44°24' E 037°47'0 0.4
2014-Sep-19 19:33N 44°24' E 037°47'0 0.3
2014-Sep-19 18:33N 44°25' E 037°47'0 0.3
2014-Sep-19 17:33N 44°25' E 037°47'0 0.2
2014-Sep-19 16:32N 44°25' E 037°48'1 0.6
2014-Sep-19 15:34N 44°25' E 037°47'10 8.1
2014-Sep-19 14:18N 44°18' E 037°36'1 0.7
2014-Sep-19 13:32N 44°18' E 037°37'0 0.5
2014-Sep-19 12:33N 44°18' E 037°38'1 0.6
2014-Sep-19 11:33N 44°18' E 037°38'1 0.7
2014-Sep-19 10:33N 44°18' E 037°39'1 0.9
2014-Sep-19 09:33N 44°18' E 037°41'1 1.0
2014-Sep-19 08:33N 44°18' E 037°42'1 1.2
2014-Sep-19 07:32N 44°19' E 037°44'1 1.3
2014-Sep-19 06:33N 44°19' E 037°45'1 1.5
2014-Sep-19 05:33N 44°20' E 037°47'3 2.2
2014-Sep-19 04:22N 44°22' E 037°45'2 2.8
2014-Sep-19 03:33N 44°24' E 037°46'1 0.7
2014-Sep-19 02:33N 44°25' E 037°46'1 1.0
2014-Sep-19 01:33N 44°26' E 037°47'1 0.6
2014-Sep-19 00:34N 44°26' E 037°47'0 0.3
2014-Sep-18 23:33N 44°26' E 037°48'0 0.3
2014-Sep-18 22:33N 44°26' E 037°48'7 7.1
2014-Sep-18 21:34N 44°25' E 037°38'40011.4
2014-Sep-17 10:34N 41°19' E 029°35'9 9.5
2014-Sep-17 09:33N 41°17' E 029°23'10 8.2
2014-Sep-17 08:23N 41°15' E 029°10'17 9.3
2014-Sep-17 06:33N 40°60' E 028°60'1211.9
2014-Sep-17 05:32N 40°52' E 029°11'0 0.2
2014-Sep-17 04:32N 40°51' E 029°11'0 0.0
2014-Sep-17 03:26N 40°51' E 029°11'0 0.0
2014-Sep-17 02:26N 40°51' E 029°11'0 0.1
2014-Sep-17 01:28N 40°51' E 029°11'7 7.2
2014-Sep-17 00:34N 40°46' E 029°16'1211.5
2014-Sep-16 23:32N 40°46' E 029°31'0 0.3
2014-Sep-16 22:28N 40°46' E 029°31'0 0.0
2014-Sep-16 21:04N 40°46' E 029°31'0 0.0
2014-Sep-16 18:16N 40°46' E 029°31'0 0.0
2014-Sep-16 17:28N 40°46' E 029°31'0 0.0
2014-Sep-16 16:22N 40°46' E 029°31'0 0.0
2014-Sep-16 15:28N 40°46' E 029°31'0 0.0
2014-Sep-16 14:28N 40°46' E 029°31'0 0.0
2014-Sep-16 13:22N 40°46' E 029°31'0 0.0
2014-Sep-16 12:28N 40°46' E 029°31'0 0.0
2014-Sep-16 11:22N 40°46' E 029°31'0 0.0
2014-Sep-16 10:22N 40°46' E 029°31'0 0.0
2014-Sep-16 08:28N 40°46' E 029°31'0 0.0
2014-Sep-16 07:28N 40°46' E 029°31'0 0.0
2014-Sep-16 05:10N 40°46' E 029°31'0 0.0
2014-Sep-16 04:22N 40°46' E 029°31'0 0.0
2014-Sep-16 03:22N 40°46' E 029°31'0 0.0
2014-Sep-16 02:28N 40°46' E 029°31'0 0.0
2014-Sep-16 01:28N 40°46' E 029°31'0 0.0
2014-Sep-16 00:16N 40°46' E 029°31'0 0.0
2014-Sep-15 23:28N 40°46' E 029°31'0 0.0
2014-Sep-15 18:10N 40°46' E 029°31'0 0.0
2014-Sep-15 17:28N 40°46' E 029°31'0 0.0
2014-Sep-15 16:10N 40°46' E 029°31'0 0.0
2014-Sep-15 15:28N 40°46' E 029°31'0 0.0
2014-Sep-15 13:28N 40°46' E 029°31'0 0.0
2014-Sep-15 12:22N 40°46' E 029°31'0 0.0
2014-Sep-15 11:28N 40°46' E 029°31'0 0.0
2014-Sep-15 10:22N 40°46' E 029°31'0 0.0
2014-Sep-15 09:28N 40°46' E 029°31'3 3.7
2014-Sep-15 08:32N 40°46' E 029°27'1 0.1
2014-Sep-15 01:32N 40°46' E 029°26'0 0.0
2014-Sep-14 11:26N 40°46' E 029°26'0 0.0
2014-Sep-14 09:20N 40°46' E 029°26'0 0.0
2014-Sep-14 06:26N 40°46' E 029°26'0 0.0
2014-Sep-13 16:14N 40°46' E 029°26'4 6.4
2014-Sep-13 15:32N 40°43' E 029°21'1211.7
2014-Sep-13 14:33N 40°48' E 029°07'1111.4
2014-Sep-13 13:33N 40°56' E 028°57'1411.2
2014-Sep-13 12:19N 41°09' E 029°04'  
Track history (hours):
 
Tides and Currents Weather Stations Pressure Air Temp Water Temp Dewpoint Dewpoint Depression Visibility Wind Speed Wind Dir Waves Ship Positions

Mustafa Sofuoglu

Last reported at 2014-Sep-20 21:29 UTC. Time now 2014-Sep-20 22:02 UTC.
Position N 44°44' E 037°47'.

Length 106 m; draft 5.6 m.

Type: Cargo ship. MMSI: 271000831.

Date/timePositionNaut miles runAvg speedWind from/ knotsBaromVisibWave heightAir tempDewpointWater temp
2014-Sep-20 21:29N 44°44' E 037°47'0 0.0
2014-Sep-20 20:32N 44°44' E 037°47'0 0.0
2014-Sep-20 19:32N 44°44' E 037°47'0 0.0
2014-Sep-20 18:32N 44°44' E 037°47'0 0.0
2014-Sep-20 17:32N 44°44' E 037°47'0 0.0
2014-Sep-20 16:32N 44°44' E 037°47'0 0.0
2014-Sep-20 15:29N 44°44' E 037°47'0 0.0
2014-Sep-20 14:32N 44°44' E 037°47'0 0.0
2014-Sep-20 13:32N 44°44' E 037°47'0 0.0
2014-Sep-20 12:32N 44°44' E 037°47'2 2.3
2014-Sep-20 11:34N 44°42' E 037°49'4 4.4
2014-Sep-20 10:33N 44°38' E 037°52'9 8.7
2014-Sep-20 09:33N 44°30' E 037°48'9 8.5
2014-Sep-20 08:33N 44°23' E 037°41'0 0.4
2014-Sep-20 07:33N 44°23' E 037°41'1 0.6
2014-Sep-20 06:33N 44°23' E 037°42'1 0.7
2014-Sep-20 05:32N 44°23' E 037°43'1 0.6
2014-Sep-20 04:33N 44°23' E 037°44'1 0.6
2014-Sep-20 03:33N 44°23' E 037°44'0 0.4
2014-Sep-20 02:32N 44°22' E 037°45'0 0.4
2014-Sep-20 01:32N 44°23' E 037°46'0 0.4
2014-Sep-20 00:33N 44°23' E 037°46'0 0.3
2014-Sep-19 23:32N 44°23' E 037°46'0 0.4
2014-Sep-19 22:34N 44°23' E 037°47'0 0.4
2014-Sep-19 21:33N 44°24' E 037°47'0 0.4
2014-Sep-19 20:33N 44°24' E 037°47'0 0.4
2014-Sep-19 19:33N 44°24' E 037°47'0 0.3
2014-Sep-19 18:33N 44°25' E 037°47'0 0.3
2014-Sep-19 17:33N 44°25' E 037°47'0 0.2
2014-Sep-19 16:32N 44°25' E 037°48'1 0.6
2014-Sep-19 15:34N 44°25' E 037°47'10 8.1
2014-Sep-19 14:18N 44°18' E 037°36'1 0.7
2014-Sep-19 13:32N 44°18' E 037°37'0 0.5
2014-Sep-19 12:33N 44°18' E 037°38'1 0.6
2014-Sep-19 11:33N 44°18' E 037°38'1 0.7
2014-Sep-19 10:33N 44°18' E 037°39'1 0.9
2014-Sep-19 09:33N 44°18' E 037°41'1 1.0
2014-Sep-19 08:33N 44°18' E 037°42'1 1.2
2014-Sep-19 07:32N 44°19' E 037°44'1 1.3
2014-Sep-19 06:33N 44°19' E 037°45'1 1.5
2014-Sep-19 05:33N 44°20' E 037°47'3 2.2
2014-Sep-19 04:22N 44°22' E 037°45'2 2.8
2014-Sep-19 03:33N 44°24' E 037°46'1 0.7
2014-Sep-19 02:33N 44°25' E 037°46'1 1.0
2014-Sep-19 01:33N 44°26' E 037°47'1 0.6
2014-Sep-19 00:34N 44°26' E 037°47'0 0.3
2014-Sep-18 23:33N 44°26' E 037°48'0 0.3
2014-Sep-18 22:33N 44°26' E 037°48'7 7.1
2014-Sep-18 21:34N 44°25' E 037°38'40011.4
2014-Sep-17 10:34N 41°19' E 029°35'9 9.5
2014-Sep-17 09:33N 41°17' E 029°23'10 8.2
2014-Sep-17 08:23N 41°15' E 029°10'17 9.3
2014-Sep-17 06:33N 40°60' E 028°60'1211.9
2014-Sep-17 05:32N 40°52' E 029°11'0 0.2
2014-Sep-17 04:32N 40°51' E 029°11'0 0.0
2014-Sep-17 03:26N 40°51' E 029°11'0 0.0
2014-Sep-17 02:26N 40°51' E 029°11'0 0.1
2014-Sep-17 01:28N 40°51' E 029°11'7 7.2
2014-Sep-17 00:34N 40°46' E 029°16'1211.5
2014-Sep-16 23:32N 40°46' E 029°31'0 0.3
2014-Sep-16 22:28N 40°46' E 029°31'0 0.0
2014-Sep-16 21:04N 40°46' E 029°31'0 0.0
2014-Sep-16 18:16N 40°46' E 029°31'0 0.0
2014-Sep-16 17:28N 40°46' E 029°31'0 0.0
2014-Sep-16 16:22N 40°46' E 029°31'0 0.0
2014-Sep-16 15:28N 40°46' E 029°31'0 0.0
2014-Sep-16 14:28N 40°46' E 029°31'0 0.0
2014-Sep-16 13:22N 40°46' E 029°31'0 0.0
2014-Sep-16 12:28N 40°46' E 029°31'0 0.0
2014-Sep-16 11:22N 40°46' E 029°31'0 0.0
2014-Sep-16 10:22N 40°46' E 029°31'0 0.0
2014-Sep-16 08:28N 40°46' E 029°31'0 0.0
2014-Sep-16 07:28N 40°46' E 029°31'0 0.0
2014-Sep-16 05:10N 40°46' E 029°31'0 0.0
2014-Sep-16 04:22N 40°46' E 029°31'0 0.0
2014-Sep-16 03:22N 40°46' E 029°31'0 0.0
2014-Sep-16 02:28N 40°46' E 029°31'0 0.0
2014-Sep-16 01:28N 40°46' E 029°31'0 0.0
2014-Sep-16 00:16N 40°46' E 029°31'0 0.0
2014-Sep-15 23:28N 40°46' E 029°31'0 0.0
2014-Sep-15 18:10N 40°46' E 029°31'0 0.0
2014-Sep-15 17:28N 40°46' E 029°31'0 0.0
2014-Sep-15 16:10N 40°46' E 029°31'0 0.0
2014-Sep-15 15:28N 40°46' E 029°31'0 0.0
2014-Sep-15 13:28N 40°46' E 029°31'0 0.0
2014-Sep-15 12:22N 40°46' E 029°31'0 0.0
2014-Sep-15 11:28N 40°46' E 029°31'0 0.0
2014-Sep-15 10:22N 40°46' E 029°31'0 0.0
2014-Sep-15 09:28N 40°46' E 029°31'3 3.7
2014-Sep-15 08:32N 40°46' E 029°27'1 0.1
2014-Sep-15 01:32N 40°46' E 029°26'0 0.0
2014-Sep-14 11:26N 40°46' E 029°26'0 0.0
2014-Sep-14 09:20N 40°46' E 029°26'0 0.0
2014-Sep-14 06:26N 40°46' E 029°26'0 0.0
2014-Sep-13 16:14N 40°46' E 029°26'4 6.4
2014-Sep-13 15:32N 40°43' E 029°21'1211.7
2014-Sep-13 14:33N 40°48' E 029°07'1111.4
2014-Sep-13 13:33N 40°56' E 028°57'1411.2
2014-Sep-13 12:19N 41°09' E 029°04'  

Dump ship's entire track history